Time,TemperatureF,DewpointF,PressureIn,WindDirection,WindDirectionDegrees,WindSpeedMPH,WindSpeedGustMPH,Humidity,HourlyPrecipIn,Conditions,Clouds,dailyrainin,SolarRadiationWatts/m^2,SoftwareType,DateUTC
2013-03-17 00:12:00,69.0,31.0,-100.00,SE,144,5.0,8.0,24,0.00,,,0.00,0.000000,,2013-03-17 07:12:00,
2013-03-17 00:22:00,69.0,31.0,-100.00,SE,144,5.0,8.0,24,0.00,,,0.00,0.000000,,2013-03-17 07:22:00,
2013-03-17 00:32:00,69.0,31.0,-100.00,SE,144,5.0,8.0,24,0.00,,,0.00,0.000000,,2013-03-17 07:32:00,
2013-03-17 00:42:00,69.0,31.0,-100.00,SE,144,5.0,8.0,24,0.00,,,0.00,0.000000,,2013-03-17 07:42:00,
2013-03-17 01:12:00,67.0,34.0,-100.00,SSE,147,6.0,8.0,29,0.00,,,0.00,0.000000,,2013-03-17 08:12:00,
2013-03-17 01:22:00,67.0,34.0,-100.00,SSE,147,6.0,8.0,29,0.00,,,0.00,0.000000,,2013-03-17 08:22:00,
2013-03-17 01:32:00,67.0,34.0,-100.00,SSE,147,6.0,8.0,29,0.00,,,0.00,0.000000,,2013-03-17 08:32:00,
2013-03-17 01:42:00,67.0,34.0,-100.00,SSE,147,6.0,8.0,29,0.00,,,0.00,0.000000,,2013-03-17 08:42:00,
2013-03-17 02:12:00,65.0,32.0,-100.00,WSW,254,5.0,7.0,29,0.00,,,0.00,0.000000,,2013-03-17 09:12:00,
2013-03-17 02:22:00,65.0,32.0,-100.00,WSW,254,5.0,7.0,29,0.00,,,0.00,0.000000,,2013-03-17 09:22:00,
2013-03-17 02:32:00,65.0,32.0,-100.00,WSW,254,5.0,7.0,29,0.00,,,0.00,0.000000,,2013-03-17 09:32:00,
2013-03-17 02:42:00,65.0,32.0,-100.00,WSW,254,5.0,7.0,29,0.00,,,0.00,0.000000,,2013-03-17 09:42:00,
2013-03-17 03:13:00,67.0,34.0,-100.00,SSW,202,5.0,7.0,29,0.00,,,0.00,0.000000,,2013-03-17 10:13:00,
2013-03-17 03:23:00,67.0,34.0,-100.00,SSW,202,5.0,7.0,29,0.00,,,0.00,0.000000,,2013-03-17 10:23:00,
2013-03-17 03:33:00,67.0,34.0,-100.00,SSW,202,5.0,7.0,29,0.00,,,0.00,0.000000,,2013-03-17 10:33:00,
2013-03-17 03:42:00,67.0,34.0,-100.00,SSW,202,5.0,7.0,29,0.00,,,0.00,0.000000,,2013-03-17 10:42:00,
2013-03-17 04:12:00,62.0,35.0,-100.00,SE,142,3.0,7.0,37,0.00,,,0.00,0.000000,,2013-03-17 11:12:00,
2013-03-17 04:22:00,62.0,35.0,-100.00,SE,142,3.0,7.0,37,0.00,,,0.00,0.000000,,2013-03-17 11:22:00,
2013-03-17 04:32:00,62.0,35.0,-100.00,SE,142,3.0,7.0,37,0.00,,,0.00,0.000000,,2013-03-17 11:32:00,
2013-03-17 04:42:00,62.0,35.0,-100.00,SE,142,3.0,7.0,37,0.00,,,0.00,0.000000,,2013-03-17 11:42:00,
2013-03-17 05:12:00,62.0,35.0,-100.00,SSE,148,4.0,6.0,37,0.00,,,0.00,0.000000,,2013-03-17 12:12:00,
2013-03-17 05:22:00,62.0,35.0,-100.00,SSE,148,4.0,6.0,37,0.00,,,0.00,0.000000,,2013-03-17 12:22:00,
2013-03-17 05:32:00,62.0,35.0,-100.00,SSE,148,4.0,6.0,37,0.00,,,0.00,0.000000,,2013-03-17 12:32:00,
2013-03-17 05:42:00,62.0,35.0,-100.00,SSE,148,4.0,6.0,37,0.00,,,0.00,0.000000,,2013-03-17 12:42:00,
2013-03-17 06:12:00,52.0,34.0,-100.00,NNW,329,3.0,7.0,50,0.00,,,0.00,0.000000,,2013-03-17 13:12:00,
2013-03-17 06:22:00,52.0,34.0,-100.00,NNW,329,3.0,7.0,50,0.00,,,0.00,0.000000,,2013-03-17 13:22:00,
2013-03-17 06:42:00,52.0,34.0,-100.00,NNW,329,3.0,7.0,50,0.00,,,0.00,0.000000,,2013-03-17 13:42:00,
2013-03-17 07:12:00,63.0,30.0,-100.00,WNW,284,3.0,8.0,29,0.00,,,0.00,1.000000,,2013-03-17 14:12:00,
2013-03-17 07:22:00,63.0,30.0,-100.00,WNW,284,3.0,8.0,29,0.00,,,0.00,1.000000,,2013-03-17 14:22:00,
2013-03-17 07:32:00,63.0,30.0,-100.00,WNW,284,3.0,8.0,29,0.00,,,0.00,1.000000,,2013-03-17 14:32:00,
2013-03-17 07:42:00,63.0,30.0,-100.00,WNW,284,3.0,8.0,29,0.00,,,0.00,1.000000,,2013-03-17 14:42:00,
2013-03-17 08:12:00,69.0,29.0,-100.00,North,357,4.0,11.0,22,0.00,,,0.00,81.000000,,2013-03-17 15:12:00,
2013-03-17 08:23:00,69.0,29.0,-100.00,North,357,4.0,11.0,22,0.00,,,0.00,81.000000,,2013-03-17 15:23:00,
2013-03-17 09:12:00,76.0,32.0,-100.00,North,357,9.0,14.0,20,0.00,,,0.00,340.000000,,2013-03-17 16:12:00,
2013-03-17 09:22:00,76.0,32.0,-100.00,North,357,9.0,14.0,20,0.00,,,0.00,340.000000,,2013-03-17 16:22:00,
2013-03-17 10:12:00,80.0,31.0,-100.00,North,8,6.0,14.0,17,0.00,,,0.00,590.000000,,2013-03-17 17:12:00,
2013-03-17 10:22:00,80.0,31.0,-100.00,North,8,6.0,14.0,17,0.00,,,0.00,590.000000,,2013-03-17 17:22:00,
2013-03-17 10:33:00,80.0,31.0,-100.00,North,8,6.0,14.0,17,0.00,,,0.00,590.000000,,2013-03-17 17:33:00,
2013-03-17 10:42:00,80.0,31.0,-100.00,North,8,6.0,14.0,17,0.00,,,0.00,590.000000,,2013-03-17 17:42:00,
2013-03-17 11:12:00,83.0,32.0,-100.00,NNE,26,7.0,12.0,16,0.00,,,0.00,796.000000,,2013-03-17 18:12:00,
2013-03-17 11:22:00,83.0,32.0,-100.00,NNE,26,7.0,12.0,16,0.00,,,0.00,796.000000,,2013-03-17 18:22:00,
2013-03-17 11:32:00,83.0,32.0,-100.00,NNE,26,7.0,12.0,16,0.00,,,0.00,796.000000,,2013-03-17 18:32:00,
2013-03-17 11:42:00,83.0,32.0,-100.00,NNE,26,7.0,12.0,16,0.00,,,0.00,796.000000,,2013-03-17 18:42:00,
2013-03-17 12:12:00,86.0,29.0,-100.00,North,8,8.0,17.0,13,0.00,,,0.00,943.000000,,2013-03-17 19:12:00,
2013-03-17 12:22:00,86.0,29.0,-100.00,North,8,8.0,17.0,13,0.00,,,0.00,943.000000,,2013-03-17 19:22:00,
2013-03-17 12:32:00,86.0,29.0,-100.00,North,8,8.0,17.0,13,0.00,,,0.00,943.000000,,2013-03-17 19:32:00,
2013-03-17 12:41:00,86.0,29.0,-100.00,North,8,8.0,17.0,13,0.00,,,0.00,943.000000,,2013-03-17 19:41:00,
2013-03-17 13:12:00,88.0,29.0,-100.00,North,10,8.0,14.0,12,0.00,,,0.00,1022.000000,,2013-03-17 20:12:00,
2013-03-17 13:22:00,88.0,29.0,-100.00,North,10,8.0,14.0,12,0.00,,,0.00,1022.000000,,2013-03-17 20:22:00,
2013-03-17 13:32:00,88.0,29.0,-100.00,North,10,8.0,14.0,12,0.00,,,0.00,1022.000000,,2013-03-17 20:32:00,
2013-03-17 13:42:00,88.0,29.0,-100.00,North,10,8.0,14.0,12,0.00,,,0.00,1022.000000,,2013-03-17 20:42:00,
2013-03-17 14:12:00,90.0,24.0,-100.00,NE,35,7.0,12.0,9,0.00,,,0.00,993.000000,,2013-03-17 21:12:00,
2013-03-17 14:22:00,90.0,24.0,-100.00,NE,35,7.0,12.0,9,0.00,,,0.00,993.000000,,2013-03-17 21:22:00,
2013-03-17 14:33:00,90.0,24.0,-100.00,NE,35,7.0,12.0,9,0.00,,,0.00,993.000000,,2013-03-17 21:33:00,
2013-03-17 14:42:00,90.0,24.0,-100.00,NE,35,7.0,12.0,9,0.00,,,0.00,993.000000,,2013-03-17 21:42:00,
2013-03-17 15:12:00,90.0,21.0,-100.00,North,352,7.0,13.0,8,0.00,,,0.00,884.000000,,2013-03-17 22:12:00,
2013-03-17 15:23:00,90.0,21.0,-100.00,North,352,7.0,13.0,8,0.00,,,0.00,884.000000,,2013-03-17 22:23:00,
2013-03-17 15:33:00,90.0,21.0,-100.00,North,352,7.0,13.0,8,0.00,,,0.00,884.000000,,2013-03-17 22:33:00,
2013-03-17 15:42:00,90.0,21.0,-100.00,North,352,7.0,13.0,8,0.00,,,0.00,884.000000,,2013-03-17 22:42:00,
2013-03-17 16:12:00,91.0,18.0,-100.00,NNW,333,7.0,12.0,7,0.00,,,0.00,760.000000,,2013-03-17 23:12:00,
2013-03-17 16:22:00,91.0,18.0,-100.00,NNW,333,7.0,12.0,7,0.00,,,0.00,760.000000,,2013-03-17 23:22:00,
2013-03-17 16:32:00,91.0,18.0,-100.00,NNW,333,7.0,12.0,7,0.00,,,0.00,760.000000,,2013-03-17 23:32:00,
2013-03-17 16:42:00,91.0,18.0,-100.00,NNW,333,7.0,12.0,7,0.00,,,0.00,760.000000,,2013-03-17 23:42:00,
2013-03-17 17:12:00,91.0,18.0,-100.00,NW,312,5.0,12.0,7,0.00,,,0.00,541.000000,,2013-03-18 00:12:00,
2013-03-17 17:22:00,91.0,18.0,-100.00,NW,312,5.0,12.0,7,0.00,,,0.00,541.000000,,2013-03-18 00:22:00,
2013-03-17 17:32:00,91.0,18.0,-100.00,NW,312,5.0,12.0,7,0.00,,,0.00,541.000000,,2013-03-18 00:32:00,
2013-03-17 17:42:00,91.0,18.0,-100.00,NW,312,5.0,12.0,7,0.00,,,0.00,541.000000,,2013-03-18 00:42:00,
2013-03-17 18:12:00,88.0,13.0,-100.00,North,5,6.0,12.0,6,0.00,,,0.00,278.000000,,2013-03-18 01:12:00,
2013-03-17 18:22:00,88.0,13.0,-100.00,North,5,6.0,12.0,6,0.00,,,0.00,278.000000,,2013-03-18 01:22:00,
2013-03-17 18:32:00,88.0,13.0,-100.00,North,5,6.0,12.0,6,0.00,,,0.00,278.000000,,2013-03-18 01:32:00,
2013-03-17 18:42:00,88.0,13.0,-100.00,North,5,6.0,12.0,6,0.00,,,0.00,278.000000,,2013-03-18 01:42:00,
2013-03-17 19:12:00,82.0,24.0,-100.00,NNE,27,4.0,9.0,12,0.00,,,0.00,68.000000,,2013-03-18 02:12:00,
2013-03-17 19:22:00,82.0,24.0,-100.00,NNE,27,4.0,9.0,12,0.00,,,0.00,68.000000,,2013-03-18 02:22:00,
2013-03-17 19:32:00,82.0,24.0,-100.00,NNE,27,4.0,9.0,12,0.00,,,0.00,68.000000,,2013-03-18 02:32:00,
2013-03-17 19:42:00,82.0,24.0,-100.00,NNE,27,4.0,9.0,12,0.00,,,0.00,68.000000,,2013-03-18 02:42:00,
2013-03-17 20:11:00,69.0,29.0,-100.00,East,87,3.0,4.0,22,0.00,,,0.00,1.000000,,2013-03-18 03:11:00,
2013-03-17 20:22:00,69.0,29.0,-100.00,East,87,3.0,4.0,22,0.00,,,0.00,1.000000,,2013-03-18 03:22:00,
2013-03-17 21:13:00,65.0,23.0,-100.00,WSW,250,5.0,8.0,20,-99.99,,,0.00,0.000000,,2013-03-18 04:13:00,
2013-03-17 21:22:00,65.0,23.0,-100.00,WSW,250,5.0,8.0,20,-99.99,,,0.00,0.000000,,2013-03-18 04:22:00,
2013-03-17 22:12:00,62.0,29.0,-100.00,ESE,103,3.0,7.0,29,-99.99,,,0.00,0.000000,,2013-03-18 05:12:00,
2013-03-17 22:22:00,62.0,29.0,-100.00,ESE,103,3.0,7.0,29,-99.99,,,0.00,0.000000,,2013-03-18 05:22:00,
2013-03-17 23:12:00,68.0,28.0,-100.00,South,176,6.0,7.0,22,-99.99,,,0.00,0.000000,,2013-03-18 06:12:00,
2013-03-17 23:22:00,68.0,28.0,-100.00,South,176,6.0,7.0,22,-99.99,,,0.00,0.000000,,2013-03-18 06:22:00,
2013-03-17 23:32:00,68.0,28.0,-100.00,South,176,6.0,7.0,22,-99.99,,,0.00,0.000000,,2013-03-18 06:32:00,
2013-03-17 23:42:00,68.0,28.0,-100.00,South,176,6.0,7.0,22,-99.99,,,0.00,0.000000,,2013-03-18 06:42:00,